ATLAS 5 CENTAUR DEB, 44002

Orbit data source: Space-Track

ATLAS 5 CENTAUR DEB, 44002 is space debris in HEO originally from a launch on Wed, 17 Sep 2014 UTC launched from the Air Force Eastern Test Range (AFETR). Debris objects in space refer to the collection of defunct objects orbiting the Earth. Examples of debris include non-operational satellites, rocket bodies, and fragments generated from explosions, collisions, or faulty payload assembly.

Loading next visibility...
Identifier
44002, 2014-055BH
Orbit
HEO
Country
Flag of USUS
Related business
Flag of USUnited Launch Alliance/Lockheed Martin (US)
Manufacturer
Unknown
Mission
Spacecraft
Bus & Motor
Unknown
Mass
Unknown
Launch date (UTC)
2014-09-17 (12 years ago)
Launch vehicle
Unknown
Launch site
Air Force Eastern Test Range (AFETR)
Object type
Payload
Rocket body
Debris
Shape & HBR
Unknown shape, 1.1 m
Radar Cross Section
Medium (>0.1 m² and <1 m²)

Expand to show TLE details & history
Last TLE update: 2 days ago

TLE from 2 days ago
0 ATLAS 5 CENTAUR DEB
1 44002U 14055BH  26252.84271446 -.00000084  00000-0  00000-0 0  9991
2 44002  20.0660 140.9067 4754485 168.4532 208.1880  1.83902701 53937
Epoch: 2026-09-09T20:13Z
TLE epoch observation values (Epoch: 2026-09-09T20:13:30.529Z)
Latitude
0.00005°
Longitude
-151.34625°
Altitude
34,412.992 km
Speed
2.319 km/s
True Right ascension
09h 23m 40s
True Declination
0° 00' 00"
Sunlit
Object was in daylight at epoch
Visualization orbit readout
Latitude
Unknown
Longitude
Unknown
Altitude
Unknown
Speed
Unknown
Apparent Right ascension
Unknown
Apparent Declination
Unknown
Sunlit
N/A
Visualization observer readout
Local Sidereal Time
01:42:49
Azimuth
Unknown
Elevation
Unknown
Doppler factor
Unknown
Orbital elements
Apogee altitude
35,145.619 km
Perigee altitude
8,384.39 km
Semi-major axis
28,143.142 km
Eccentricity
0.47545
Inclination
20.066°
RAAN
140.9067°
Arg. of periapsis
168.4532°
True anomaly
191.52977°
Mean anomaly
208.188°
Eccentric anomaly
199.22021°
Mean motion
0.45971 °/min
Orbital period
783.1 mins
BSTAR
0
Loading maneuver chart data...
Computing Atmospheric mass density...

Documentation

Showing up to 5 results
|